Regional Weather Roundup
Issued by NWS

Home | Current Version | Previous Version | Text Only | Print | Product List | Glossary On
Versions: 1 2 3 4 5 6 7 8 9 10 11 12 13 14 15 16 17 18 19 20 21 22 23 24 25 26 27 28 29 30 31 32 33 34 35 36 37 38 39 40 41 42 43 44 45 46 47 48 49 50
000
ASUS43 KOAX 240302
RWRNE

WEATHER ROUNDUP FOR NEBRASKA
NATIONAL WEATHER SERVICE OMAHA NE
1000 PM CDT SAT JUL 23 2016

NOTES: SATELLITE DATA IS BEING USED TO AUGMENT CLOUD COVER ABOVE
       12000 FEET.
       "FAIR" INDICATES FEW OR NO CLOUDS BELOW 12,000 FEET WITH NO
       SIGNIFICANT WEATHER AND/OR OBSTRUCTIONS TO VISIBILITY.

  * THESE STATIONS DO NOT REPORT WEATHER SUCH AS RAIN...SNOW OR FOG.

NEZ001>004-019>022-054>056-240400-
NEBRASKA PANHANDLE

CITY           SKY/WX    TMP DP  RH WIND       PRES   REMARKS
SCOTTSBLUFF    CLOUDY    75  57  53 E5        29.99R
ALLIANCE       CLEAR     71  59  65 E6        30.01R
CHADRON        PTCLDY    75  47  36 E8        29.99R
SIDNEY         CLOUDY    72  56  57 S8        30.02S
$$

NEZ057>060-069>072-079>082-240400-
SOUTHWEST NEBRASKA

CITY           SKY/WX    TMP DP  RH WIND       PRES   REMARKS
NORTH PLATTE   CLEAR     77  68  73 NE3       29.91R
IMPERIAL       CLEAR     83  61  47 N9        29.95S
LEXINGTON      CLEAR     79  76  90 N6        29.88R
MCCOOK         CLEAR     79  69  71 N7        29.89R
OGALLALA       CLOUDY    81  66  61 CALM      29.95F
$$

NEZ005>010-023>029-035>040-094-240400-
NORTH CENTRAL NEBRASKA

CITY           SKY/WX    TMP DP  RH WIND       PRES   REMARKS
VALENTINE      CLEAR     78  53  41 N7        29.95R
AINSWORTH      CLEAR     73  59  61 N7        29.94R
BROKEN BOW     CLEAR     74  69  85 N9        29.90R
O`NEILL        CLEAR     81  65  58 NW12      29.85R
ORD            CLEAR     79  73  82 CALM      29.84R
THEDFORD       CLEAR     79  58  48 N7        29.96R
$$

NEZ041-046>049-061>064-073>077-083>087-240400-
SOUTH CENTRAL NEBRASKA

CITY           SKY/WX    TMP DP  RH WIND       PRES   REMARKS
GRAND ISLAND   CLEAR     82  74  76 CALM      29.84R
AURORA         CLEAR     84  80  88 CALM      29.83R HX  97
HASTINGS       CLEAR     83  75  77 E3        29.85R HX  90
HEBRON         PTCLDY    84  71  63 S10       29.80R
HOLDREGE       CLEAR     78  73  84 N7        29.86R
KEARNEY *      CLEAR     82  72  69 N5        29.87R
YORK           CLEAR     84  75  74 S6        29.83R HX  92
$$

NEZ011>018-030>034-042>045-240400-
NORTHEAST NEBRASKA

CITY           SKY/WX    TMP DP  RH WIND       PRES   REMARKS
NORFOLK        CLEAR     81  75  82 CALM      29.79R
ALBION         CLEAR     80  74  79 SE3       29.83R
BLAIR          CLOUDY    82  76  81 S6        29.80R HX  90
FREMONT        CLEAR     84  74  71 S6        29.80R HX  91
TEKAMAH        PTCLDY    81  77  88 S5        29.78R
WAYNE          CLEAR     80  78  94 S3        29.79R
$$

NEZ050>053-065>068-078-088>093-240400-
SOUTHEAST NEBRASKA

CITY           SKY/WX    TMP DP  RH WIND       PRES   REMARKS
LINCOLN        CLOUDY    84  72  67 S5        29.80R
OMAHA EPPLEY   CLOUDY    86  76  71 S14       29.78R HX  96
BEATRICE       CLOUDY    86  70  59 S10       29.81R HX  91
FALLS CITY     CLOUDY    85  74  69 S10       29.82R HX  92
NEBRASKA CITY  CLOUDY    80  76  87 S8        29.82R
PLATTSMOUTH    CLOUDY    82  77  83 S8        29.81R HX  91
$$

NEZ044-045-051>053-067-240400-
OMAHA AREA

CITY           SKY/WX    TMP DP  RH WIND       PRES   REMARKS
OMAHA EPPLEY   CLOUDY    86  76  71 S14       29.78R HX  96
BLAIR          CLOUDY    82  76  81 S6        29.80R HX  90
FREMONT        CLEAR     84  74  71 S6        29.80R HX  91
MILLARD        CLOUDY    84  78  82 SE3       29.79R HX  96
OFFUTT AFB     CLOUDY    83  77  82 SE8       29.79R HX  92
PLATTSMOUTH    CLOUDY    82  77  83 S8        29.81R HX  91
WAHOO          FAIR      81  76  84 S6        29.80R
$$



USA.gov is the U.S. government's official web portal to all federal, state and local government web resources and services.